小惑星A/2021 X2

A/2021 X2

English version
Home page
Updated on September 11, 2022

---------------------------------------------------------------------

・ プロフィール

発見日 2021年12月1日
発見光度 21.6等
発見者 Kitt Peak-Bok

・ 軌道要素

Epoch 2022 Aug. 9.0 TT = JDT 2459800.5
T 2022 July 8.16261 TT                                  Rudenko
q   2.9945513            (2000.0)            P               Q
z  -0.0004836      Peri.  193.28627     +0.76783236     +0.38543916
 +/-0.0000035      Node   228.79918     +0.63219766     -0.32653124
e   1.0014482      Incl.  137.14631     +0.10372847     -0.86302607
H   16.0
From 54 observations 2021 Oct. 30-2022 Sept. 8, mean residual 0".2.

・ 光度変化

        H = 16.0  G = 0.15

---------------------------------------------------------------------

軌道要素はM.P.E.C. 2022-R139に掲載されたものです。
光度グラフはComet for Windowsで作成したものです。

---------------------------------------------------------------------

Copyright(C) Seiichi Yoshida (comet@aerith.net). All rights reserved.